Location: *
(53.4003°S, 165.3236°W)
Time: 01:50:22
(UTC+00:00)

Cosmos 2084 - Pass Details

Date: 11 December 2023
Orbit: 489 x 660 km, 62.8° (Epoch: 24 February)

Event Time Altitude Azimuth Distance (km) Brightness Sun altitude
Exits shadow 12:22:50 - 301° (WNW) 2,121 5.8 -11.2°
Reaches altitude 10° 12:23:02 10° 300° (WNW) 2,045 5.8 -11.2°
Maximum altitude 12:27:43 68° 216° (SW) 719 4.0 -11.0°
Drops below altitude 10° 12:32:33 10° 133° (SE) 2,121 7.5 -10.7°
Sets 12:34:56 0° 130° (SE) 3,043 8.4 -10.6°
